World > North America > United States > Illinois > Richmond

Hourly Richmond, IL Regional Weather

Feedback E-mail the Weather

Quick WX

Richmond, IL Weather Maps

°F °C°F °C
Richmond Weather Map
UTC Time: 8/9/2022, 13:21
Your Time:

Richmond, IL Regional Weather

Expires:202208091400;;733230
ASUS43 KLOT 091309
RWRIL 

ILLINOIS REGIONAL WEATHER ROUNDUP
NATIONAL WEATHER SERVICE CHICAGO/ROMEOVILLE IL
800 AM CDT TUE AUG 09 2022

NOTE: "FAIR" INDICATES FEW OR NO CLOUDS BELOW 12,000 FEET WITH NO
SIGNIFICANT WEATHER AND/OR OBSTRUCTIONS TO VISIBILITY.

* THESE STATIONS ARE NOT UNDER NWS QUALITY CONTROL. THEY ALSO MAY NOT
  REPORT WEATHER SUCH AS PRECIPITATION OR FOG.


ILZ005-006-012>014-019>023-091400-
NORTHEAST ILLINOIS
  
CITY           SKY/WX    TMP DP  RH WIND       PRES   REMARKS
CHICAGO-OHARE  PTSUNNY   65  60  84 N9        30.10S                  
CHICAGO-MIDWAY PTSUNNY   68  60  75 N8        30.10R                  
AURORA         SUNNY     65  61  87 N7        30.12R                  
JOLIET*        SUNNY     67  63  85 N8        30.11R                  
WAUKEGAN       SUNNY     66  59  78 N7        30.12R                  
DUPAGE AIRPORT SUNNY     66  60  81 N8        30.11R                  
KANKAKEE*      SUNNY     66  61  82 NE7       30.10R                  
WHEELING       SUNNY     67  60  78 N7        30.13R                  
MORRIS*        SUNNY     65  65 100 CALM      30.10R                  
LANSING*       CLOUDY    66  65  94 N5        30.11R                  
NORTHERLY ISL*   N/A     66  60  81 N8          N/A                   
$$


SKY/WX - Weather  TMP - Temperature  DP - Dew Point  RH - Humidity
WIND - Wind Direction/Speed PRES - Barometric Pressure VSB - Visibility
WCI - Wind Chill Index E13G22 Wind - East Wind 13 mph/Gusts of 22 mph

Trending Headlines

Richmond Radar Loop



Richmond Quick Facts


National Two Day Weather Forecast


E-mail the Richmond Weather Forecast

Voice your opinion or tell us about page issues...